Probability
25 28 27 23 20 18 17 17 20 24 21 16 14 12 11 10 7 5 4 3 3 3 3 3 3 4 4 4 2 1 1 0 0 0 0 0 0 0 0 0 0 0 0
32 33 32 30 27 23 20 17 19 21 19 15 14 13 11 8 6 5 4 3 3 3 3 3 3 4 4 4 4 4 2 1 1 2 1 0 0 0 0 0 0 0 1
38 37 38 37 33 29 24 19 17 16 13 11 12 13 11 8 4 4 3 3 3 3 3 3 3 3 3 4 5 6 5 4 4 5 4 1 1 1 1 0 0 0 1
34 35 37 36 32 27 23 19 15 12 10 10 10 12 11 7 4 4 4 4 4 3 2 3 4 2 2 3 4 5 6 6 6 6 5 3 2 2 1 0 0 0 1
28 30 32 31 28 23 20 17 15 13 11 11 9 9 8 6 4 4 4 5 5 3 2 3 4 3 2 1 2 3 6 7 6 7 7 5 4 2 1 0 0 0 0
25 26 28 29 27 25 20 17 17 17 15 14 10 7 6 4 2 3 4 5 5 3 2 3 5 6 4 2 2 3 5 6 6 7 8 8 7 4 3 1 0 0 1
25 27 30 30 28 26 23 19 18 18 18 17 13 9 6 3 1 1 3 5 4 3 3 3 5 7 6 4 3 3 4 4 5 6 8 10 9 7 6 4 1 1 1
26 28 32 32 27 24 22 20 18 18 18 17 16 13 9 4 1 2 4 6 5 3 2 2 3 5 5 4 4 4 4 4 3 4 8 11 11 10 9 6 4 3 2
22 25 30 29 25 22 21 19 18 17 16 16 18 17 12 7 6 6 6 6 5 3 2 0 1 3 2 2 4 5 5 7 6 6 9 10 12 14 13 10 8 6 5
15 19 24 24 20 19 19 17 16 15 14 14 16 16 13 11 10 9 6 5 4 3 2 0 1 2 2 3 3 5 7 8 9 10 9 10 12 15 15 12 10 10 9
12 17 21 21 18 17 18 17 14 12 11 10 10 10 8 8 8 7 5 3 3 3 1 0 0 2 3 4 3 4 6 7 8 8 8 8 10 12 11 8 7 9 10
17 20 22 22 20 17 17 15 13 11 10 9 8 6 5 5 5 5 4 3 3 3 1 0 0 2 3 4 4 4 5 5 6 5 5 6 8 9 7 5 4 5 6
25 27 29 29 26 21 17 14 12 11 10 9 8 7 5 5 4 4 3 3 4 3 1 0 1 2 3 3 4 5 4 5 6 5 5 6 7 8 7 6 5 4 4
30 33 37 36 31 24 18 14 11 10 8 6 5 5 4 3 3 3 3 3 3 3 2 1 2 3 3 4 5 5 5 6 7 7 7 6 6 6 6 6 6 6 6
31 35 40 38 33 27 21 16 12 9 6 3 2 1 1 1 1 1 1 2 2 3 4 3 3 3 3 3 4 4 5 6 6 7 7 5 3 3 3 4 5 6 8
34 36 38 38 35 31 25 19 13 8 4 1 1 1 1 1 1 1 1 2 2 3 5 4 3 4 3 3 2 2 3 4 6 6 5 3 1 1 1 2 2 3 5
41 42 42 41 37 32 27 22 15 9 3 2 3 3 3 3 3 4 4 4 4 5 6 6 6 5 4 3 1 0 1 3 4 5 4 2 1 1 1 0 0 0 1
51 54 52 45 37 32 28 22 17 12 7 6 7 7 6 6 6 7 7 8 8 8 9 9 9 8 6 3 1 0 1 2 4 4 3 3 2 1 0 0 0 0 0
60 63 60 50 40 34 28 23 19 15 12 11 11 9 8 7 7 9 10 11 11 11 11 11 11 9 6 2 0 1 2 3 4 4 3 2 2 1 0 0 0 0 0
65 65 62 54 44 34 28 25 21 17 14 13 11 9 8 8 9 10 11 12 14 13 10 9 8 8 6 2 0 1 2 3 4 4 2 1 1 0 0 0 0 0 0
66 64 60 54 46 36 30 27 21 16 13 11 10 9 8 9 9 10 10 11 12 11 9 7 6 5 4 2 1 1 2 3 3 3 1 0 0 0 0 0 0 0 0
61 61 56 50 42 36 30 25 20 14 9 8 8 8 7 7 7 8 8 8 8 7 7 6 5 4 3 2 1 0 1 2 3 2 1 0 0 0 0 0 0 0 0
53 53 49 42 35 30 25 20 16 13 9 7 7 7 6 5 5 6 6 6 5 5 5 5 4 3 3 2 1 0 0 1 2 2 1 0 0 0 0 0 0 0 0
45 44 40 33 28 23 18 15 14 11 9 8 8 7 5 4 6 6 6 6 5 4 3 3 3 3 3 2 1 0 0 0 1 1 0 0 0 0 0 0 0 0 0
35 34 31 26 21 17 15 15 14 11 9 8 8 6 4 3 4 5 4 4 3 3 2 2 3 3 2 1 0 0 0 0 0 0 0 0 0 0 0 0 0 0 0
29 29 26 20 15 13 14 16 16 13 10 8 6 4 2 2 2 2 2 1 1 1 1 1 2 2 1 0 0 0 0 0 0 0 0 0 0 0 0 0 0 0 0
Wind_Speed
9 10 10 10 10 10 11 12 13 11 9 7 7 7 7 6 5 5 6 7 7 7 6 5 5 5 4 4 5 4 5 4 3 3 3 4 5 4 4 4 3 4 5
10 10 11 10 11 11 11 12 12 12 11 8 7 6 5 5 5 5 5 7 7 7 7 7 6 6 5 6 6 5 4 4 4 4 3 4 5 5 5 4 5 4 4
11 11 11 11 11 11 12 11 12 12 12 10 7 6 5 4 5 6 6 7 7 7 7 7 7 6 6 6 7 6 7 5 4 4 4 3 2 2 4 4 4 4 3
9 10 10 10 11 10 10 10 11 11 11 11 9 10 8 8 7 6 5 6 7 8 8 8 7 7 6 5 7 7 6 6 5 4 5 5 4 3 2 3 3 3 3
9 10 10 9 9 9 8 9 10 10 10 10 10 10 9 7 5 5 6 6 6 8 8 8 7 7 6 6 7 6 7 6 6 5 5 5 4 6 4 2 2 2 2
9 9 9 8 8 8 8 8 9 10 10 10 10 10 9 8 7 6 6 6 5 6 8 8 6 7 6 6 7 6 8 6 7 6 5 5 4 5 4 4 3 2 2
9 9 10 9 9 9 8 8 9 9 10 10 10 10 9 9 8 7 6 6 5 5 7 7 6 6 6 6 6 6 7 7 7 6 6 5 5 4 4 4 3 2 2
9 9 9 9 8 9 8 8 9 9 9 9 9 8 7 6 5 6 5 5 5 5 5 6 6 6 6 6 5 6 6 6 6 7 6 5 5 5 5 4 4 4 2
9 9 9 9 8 8 8 8 8 8 8 8 7 6 6 6 5 5 5 4 4 4 5 5 6 6 6 6 6 5 5 5 6 6 6 6 4 4 4 4 4 4 4
9 9 9 9 8 7 7 7 7 7 7 7 6 5 5 5 4 4 4 4 4 4 4 4 5 6 6 6 6 5 5 5 5 4 4 4 4 4 4 4 4 3 3
10 10 9 8 7 7 7 7 6 7 6 5 5 4 4 4 4 4 4 3 3 3 4 4 4 5 5 5 5 4 4 5 4 4 5 5 4 3 3 3 3 3 3
10 10 10 8 7 7 7 6 6 6 5 5 5 4 3 4 4 4 3 3 3 3 3 3 3 4 5 4 5 5 4 4 4 4 3 3 3 3 3 3 3 3 3
10 10 10 9 8 7 7 7 6 6 5 6 5 4 4 3 3 2 2 2 3 3 3 3 4 4 4 4 4 3 3 3 2 2 2 2 2 2 2 3 3 3 3
11 10 9 9 8 7 7 7 6 6 6 6 5 4 4 3 3 2 2 2 2 2 2 2 3 3 3 3 3 3 3 2 2 1 1 1 1 1 2 2 3 3 3
12 11 10 9 9 8 7 7 7 6 6 6 5 5 4 4 3 3 3 3 2 2 2 2 2 2 2 2 2 3 3 3 3 2 2 2 3 4 2 1 2 3 4
13 12 11 11 10 9 8 8 7 7 6 6 5 5 5 4 4 4 4 3 2 2 2 2 2 1 1 3 3 2 3 3 3 3 4 4 5 7 9 9 8 5 3
13 12 12 11 10 9 9 8 8 7 7 6 6 5 5 5 4 4 4 4 3 3 3 3 3 3 4 6 5 4 3 4 3 4 4 3 5 5 6 9 10 10 10
12 12 11 11 10 10 9 8 8 8 7 6 6 5 5 5 5 5 4 4 3 3 3 4 4 4 6 7 6 6 5 5 5 5 5 5 5 5 5 8 8 8 7
10 10 11 11 10 10 10 10 9 8 7 7 6 5 5 5 5 5 4 4 4 4 4 4 4 5 6 6 6 5 6 6 6 6 5 5 6 6 7 9 9 9 8
10 10 11 11 10 9 9 9 9 8 7 7 6 5 5 5 5 5 4 4 4 4 4 5 5 5 6 6 5 3 5 6 6 6 6 8 7 7 6 8 9 9 7
11 11 11 10 9 9 9 9 8 7 6 6 6 6 5 5 5 5 5 5 5 5 5 6 5 5 6 6 4 2 4 6 6 6 6 6 8 8 7 6 7 7 7
11 11 10 9 9 9 9 8 7 6 6 6 6 6 6 5 5 6 5 5 5 6 5 6 6 5 5 5 5 6 6 5 7 6 7 8 9 10 9 8 8 6 4
10 10 10 10 8 7 7 8 7 6 6 6 6 6 6 5 5 5 6 5 5 4 5 5 5 5 5 6 9 9 9 8 7 8 11 11 11 11 9 9 6 4 4
9 9 10 9 7 6 6 6 6 6 6 7 6 6 6 6 5 4 3 3 4 4 4 4 5 6 6 6 6 6 8 10 10 10 11 11 8 8 9 7 4 3 5
7 8 8 8 7 6 6 6 6 6 6 7 6 6 6 6 6 5 4 2 3 1 2 3 4 5 6 5 5 5 6 6 8 9 7 7 6 6 6 5 5 5 5
7 7 8 8 7 6 6 5 5 6 7 6 6 5 5 5 5 6 6 11 8 9 9 7 5 6 8 11 10 9 8 9 8 6 7 6 6 5 5 5 5 4 4
Wind_Direction
178 177 179 182 182 186 188 190 191 189 188 189 192 199 203 207 211 213 209 215 218 212 221 230 196 215 214 220 214 213 208 221 218 230 218 213 218 211 206 222 225 208 209
173 175 179 182 187 189 192 192 193 191 193 195 197 205 208 209 209 213 208 217 220 219 215 224 223 214 216 220 224 224 238 227 215 241 244 224 201 207 208 203 210 218 207
178 176 180 183 188 192 194 193 194 194 196 195 195 198 198 209 207 208 208 216 219 222 229 222 229 227 228 217 221 222 228 236 224 237 257 267 251 195 182 207 211 214 214
180 175 177 182 189 190 192 192 192 194 195 194 200 201 203 208 210 209 206 213 221 227 226 226 225 228 234 228 227 220 227 235 237 220 241 269 309 283 212 197 189 198 215
178 175 178 180 183 184 184 185 189 191 192 197 203 209 215 217 216 212 209 217 220 227 228 225 222 223 231 232 239 231 231 230 239 238 228 230 232 250 262 245 197 192 199
170 167 169 170 173 174 177 175 182 188 192 196 202 210 216 218 220 217 215 216 216 219 220 223 222 222 226 227 231 233 229 234 241 250 245 234 236 243 245 248 234 204 177
165 163 165 166 169 173 175 177 182 186 189 193 200 208 215 217 221 223 221 224 223 220 216 220 220 222 224 228 227 225 235 230 232 238 247 250 250 253 253 252 250 236 195
164 162 162 163 168 172 173 179 181 185 187 191 197 203 212 218 222 226 226 224 230 232 220 220 220 223 225 228 226 231 229 230 232 239 245 251 252 255 253 250 250 244 220
162 161 162 162 165 167 171 176 176 179 183 188 193 196 207 219 222 224 224 229 226 228 219 221 223 226 227 231 230 232 234 233 234 238 233 240 245 246 254 257 253 252 245
160 157 158 158 158 159 161 165 169 171 176 184 193 190 197 207 212 217 219 227 231 227 219 218 223 224 223 225 227 225 225 230 236 246 249 246 252 246 246 249 254 255 244
160 157 156 154 151 151 153 159 157 159 165 175 181 187 190 193 195 203 210 209 215 215 216 217 221 222 221 220 222 227 227 227 231 237 235 237 252 250 246 237 234 225 209
157 157 155 154 154 153 155 156 155 154 160 163 164 164 168 177 184 190 195 195 198 207 207 208 217 225 223 217 216 221 224 223 225 228 226 234 231 231 247 238 226 214 192
161 159 159 158 156 153 152 151 153 148 149 150 152 151 157 161 171 176 174 177 188 203 205 204 212 222 225 215 211 212 208 211 210 210 214 227 222 227 226 224 218 210 186
167 164 159 157 156 153 151 150 145 143 145 145 146 148 154 155 161 163 164 172 185 198 204 205 207 215 212 207 196 184 178 173 164 163 195 225 213 217 213 206 195 176 161
171 168 164 158 159 156 156 152 146 148 149 152 153 149 148 147 148 150 154 156 171 180 173 172 174 190 192 182 171 171 165 150 134 115 97 78 79 66 56 89 148 158 161
174 170 165 162 163 161 159 154 151 150 153 155 151 149 152 150 149 147 143 142 143 137 130 129 130 132 105 88 104 149 144 137 127 115 99 96 92 89 82 77 72 78 133
173 169 165 163 162 161 159 158 154 153 154 154 152 155 155 147 141 143 141 138 133 123 117 109 105 98 84 87 96 101 121 115 114 112 108 98 95 102 104 94 87 75 71
169 165 161 157 157 155 153 151 150 152 152 151 153 156 155 146 146 146 140 136 133 124 112 101 96 97 90 89 97 103 107 103 103 105 110 110 104 99 110 106 95 83 72
161 156 155 152 151 152 151 152 154 154 153 153 155 157 155 148 149 145 140 136 129 118 110 102 101 99 94 86 94 103 107 101 93 88 89 100 104 96 108 113 110 104 96
147 146 145 144 146 149 154 156 158 157 157 156 156 155 152 150 147 142 137 129 125 118 109 96 92 97 99 89 91 114 119 112 105 93 87 79 84 91 103 121 121 117 113
137 138 139 139 141 147 154 154 153 153 152 153 151 150 150 146 141 137 134 133 128 119 113 107 100 97 99 101 81 63 123 124 119 112 103 91 85 84 76 90 106 115 123
137 138 136 133 136 146 151 148 149 147 148 149 146 144 145 141 137 136 134 132 134 133 128 121 115 106 102 91 87 71 74 97 114 111 108 102 97 87 79 85 93 109 131
135 136 134 131 134 144 152 148 142 143 146 145 141 139 136 130 133 141 142 144 148 146 140 139 133 121 112 96 86 85 82 83 97 98 99 108 110 107 97 92 99 133 123
136 136 136 132 132 139 140 134 136 144 148 145 142 142 138 134 129 128 138 147 151 154 150 149 142 135 132 130 128 121 113 110 109 112 113 112 105 102 105 121 124 102 87
131 135 133 132 134 135 130 129 138 148 148 145 145 148 141 131 119 102 70 78 67 69 152 150 145 149 146 122 112 132 134 133 128 133 134 134 132 127 123 117 109 113 120
130 130 130 131 131 133 129 131 141 149 148 149 152 149 141 134 131 124 100 56 61 62 61 65 93 97 104 117 112 106 106 115 138 145 138 136 134 131 129 129 128 127 123